DECAYED

CZ-6A DEB, 61805 (Decayed)

Orbit data source: Space-Track

CZ-6A DEB, 61805 was space debris in LEO originally from a launch on Tue, 06 Aug 2024 UTC launched from the Taiyaun Space Center, China (TSC). Debris objects in space refer to the collection of defunct objects orbiting the Earth. Examples of debris include non-operational satellites, rocket bodies, and fragments generated from explosions, collisions, or faulty payload assembly.

Not visible in the next 10 days
Identifier
61805, 2024-140ABV
Orbit
Decayed
Country
Flag of CNCN / PRC
Related business
Manufacturer
SAST
Mission
Decayed spacecraft
Bus & Motor
Unknown
Mass
Unknown
Launch date (UTC)
2024-08-06 (2 years ago)
Launch vehicle
Unknown
Launch site
Taiyaun Space Center, China (TSC)
Object type
Payload
Rocket body
Debris
Shape & HBR
Unknown shape, 0.1 m
Radar Cross Section
Small (<0.1 m²)

Expand to show TLE details & history
Last TLE update: 2 months ago

TLE from 2 months ago
0 CZ-6A DEB
1 61805U 24140ABV 26125.06077804  .02205711  26393-2  90856-2 0  9992
2 61805  88.6985 245.5437 0031352 240.1239 119.6926 15.85794290 91421
Epoch: 2026-05-05T01:27Z
TLE epoch observation values (Epoch: 2026-05-05T01:27:31.222Z)
Latitude
-0.00004°
Longitude
0.72257°
Altitude
327.819 km
Speed
7.706 km/s
True Right ascension
16h 22m 10s
True Declination
0° 00' 00"
Sunlit
Object was in full shadow at epoch
Visualization orbit readout
Latitude
Unknown
Longitude
Unknown
Altitude
Unknown
Speed
Unknown
Apparent Right ascension
Unknown
Apparent Declination
Unknown
Sunlit
N/A
Visualization observer readout
Local Sidereal Time
07:20:49
Azimuth
Unknown
Elevation
Unknown
Doppler factor
Unknown
Orbital elements
Apogee altitude
331.78 km
Perigee altitude
289.838 km
Semi-major axis
6,688.946 km
Eccentricity
0.00314
Inclination
88.6985°
RAAN
245.5437°
Arg. of periapsis
240.1239°
True anomaly
120.00409°
Mean anomaly
119.6926°
Eccentric anomaly
119.8484°
Mean motion
3.96741 °/min
Orbital period
90.74 mins
BSTAR
0.0090856
Loading maneuver chart data...
Computing Atmospheric mass density...
Loading historical data...
Loading historical data...
Loading historical data...
Loading historical data...
Loading historical data...
Loading historical data...
Loading historical data...

Documentation

Showing up to 5 results
|